Погода Каменная Степь

Погода Каменная Степь : погода сейчас, прогноз погоды и архив. Всё, что Вы хотите узнать о погоде Каменная Степь!

Поиск расширенной информации на нашем сайте:

Другие новости

Новости СМИ2

Главная страница сайта

Новости сайта

02.10.2013

Напоминаем, что на нашем новом сайте вы можете получить высокодетализированные прогнозы погоды по пунктам России, СНГ и мира (включающие важные для авиации метеовеличины, такие как направление и скорость ветра, видимость, явления погоды, количество и форма облачности, нижняя и верхняя граница облачности), а также ознакомиться с разнообразными материалами по авиационной метеорологии и подборкой полезных ссылок на эту тему.

Сайт Метеоцентр.Азия посвящён разработке технологий оптимизации авиаметеорологического обслуживания, включая проектирование и перспективное создание нескольких автоматизированных авиаметеорологических систем:
- система выпуска высокодетальных прогностических карт явлений погоды для нижнего воздушного пространства по России и ближнему зарубежью;
- система верификации прогнозов TAF (выпускаемых синоптиками официальных АМСГ РФ и ближнего зарубежья) и AUTOTAF (выпускаемых сайтом Метеоцентр.Азия) - выявление ошибок, онлайн-сопоставление с фактической погодой METAR, автоматическое внесение коррективов в прогнозы при резком отклонении фактической погоды от прогноза, подсчёт оправдываемости прогнозов по элементам и в целом;
- система обработки, анализа и отображения авиаметеорологической информации для применения провайдерами метеорологической информации.

Рекомендуем: Jpg столы пластиковые.

Погода Каменная Степь - сегодня

Время (UTC), дата Ветер
(°,м/с) 
Видим.   Явления Облачность Т
(°С)
Тd
(°С)
f(%) Тe
(°С)
Pmin
(гПа)
dP
(гПа)
Po
(мм)
O2
(г/м3)
Тmin Tmax R s Состояние
почвы
09 18.01.17 310 (СЗ) 7000 м  дымка  10/10 600 м 
[Sc]
-5.5 -6.2 95 -7  1036.9  0.9  759  313           
12 18.01.17 300 (СЗ) 8000 м  дымка  10/10 600 м 
[Sc]
-5.7 -6.8 92 -8  1036.4  -0.5  758  313           
15 18.01.17 270 (З) 0500 м  туман  ?/?  
-7.2 -7.7 96 -9  1037.5  0.9  759  315    -5.2       
18 18.01.17 250 (З) 1000 м  дымка{туман}  ?/?  
-8.2 -8.8 95 -8  1037.9  0.3  759  316           
21 18.01.17 250 (З) 4000 м  дымка{туман}  10/10 600 м 
[Sc]
-7.5 -8.1 95 -7  1037.5  -0.3  759  315           
00 19.01.17 230 (ЮЗ) 2000 м  дымка  10/10 600 м 
[Sc]
-9 -9.7 95 -11  1037.1  -0.6  759  317           
03 19.01.17 230 (ЮЗ) 4000 м  дымка  10/10 600 м 
[Sc]
-8.4 -9 95 -10  1036.4  -0.6  758  316  -9.3      21  равномерный
сухой снег
100% 
06 19.01.17 230 (ЮЗ) 6000 м  дымка  10/8 600 м верхняя 
[Sc|Ci fib]
-7.9 -8.5 95 -9  1036.3  -0.1  758  315           
09 19.01.17 230 (ЮЗ) 7000 м  дымка{снег}  9/9 600 м 
[Sc]
-7.3 -7.8 96 -10  1035.7  -0.5  758  315           
12 19.01.17 230 (ЮЗ) 11000 м    3/0 верхняя 
[Ci fib]
-6.9 -9.4 82 -10  1033.9  -1.7  756  314           
15 19.01.17 230 (ЮЗ) 10 км    8/0 средняя, верхняя 
[Ac As|Cs]
-9.3 -11.4 85 -14  1032.6  -1.5  755  316    -6.5  0.0     
18 19.01.17 250 (З) 4000 м  дымка  9/6 600 м средняя, верхняя 
[Sc|Ac As|Cs]
-12.1 -13.4 90 -16  1031.9  -1  755  319           
21 19.01.17 230 (ЮЗ) 4000 м  слаб. снег  10/8 600 м средняя 
[Sc|As trans]
-13 -14.3 90 -19  1029.9  -1.9  753  320           
00 20.01.17 230 (ЮЗ) 7-10{10}  4000 м  слаб. снег  10/8 600 м средняя 
[Sc|As op]
-13.4 -14.7 90 -20  1027.6  -2.3  751  320           
03 20.01.17 230 (ЮЗ) 7-10{11}  4000 м  позёмок{снег}  10/6 600 м средняя 
[Sc|As trans]
-12.3 -13.6 90 -19  1024.3  -3.1  749  317  -14.1    0.3  21  равномерный
сухой снег
100% 
06 20.01.17 230 (ЮЗ) 7-10{11}  6000 м  слаб. снег  10/10 300 м 
[Frnb|Ns]
-10.1 -11.4 90 -16  1022.4  -1.7  748  314           
09 20.01.17 230 (ЮЗ) 6-11{11}  2500 м  снег  10/10 200 м 
[Frnb|Ns]
-8.3 -9.3 92 -13  1021  -1.2  747  311           
12 20.01.17 240 (ЮЗ) 6{10}  9000 м  слаб. снег  10/10 300 м 
[Frnb|Ns]
-7.2 -8.5 90 -12  1019  -1.8  746  309           
15 20.01.17 240 (ЮЗ) 5{10}  4000 м  позёмок{снег}  10/10 300 м 
[St]
-5.9 -6.6 95 -10  1018.9  746  308    -5.9  0.3     
18 20.01.17 250 (З) 4000 м  позёмок{снег}  10/10 600 м 
[Sc]
-4.9 -5.5 96 -8  1019.1  0.3  746  307           
21 20.01.17 230 (ЮЗ) 4000 м  дымка  10/10 600 м 
[Sc]
-4.4 -5.3 93 -8  1018.7  -0.3  746  306           
00 21.01.17 230 (ЮЗ) 4000 м  дымка  10/10 600 м 
[Sc]
-4.5 -5.4 93 -8  1017.9  -0.8  745  306           
03 21.01.17 230 (ЮЗ) 4000 м  дымка  10/10 600 м 
[Sc]
-4.3 -5.2 93 -7  1016.7  -1.2  744  305  -6      21  равномерный
сухой снег
100% 
06 21.01.17 230 (ЮЗ) 8000 м  дымка{снег}  10/10 600 м 
[Sc]
-4.2 -5.1 93 -7  1015.6  -1.1  743  305           
09 21.01.17 230 (ЮЗ) 5{10}  6000 м  слаб. снег  10/10 300 м 
[Frnb|Ns]
-3.4 -13.7 45 -7  1013.7  -1.7  742  304           
Время (UTC), дата Ветер
(°,м/с) 
Видим.   Явления Облачность Т
(°С)
Тd
(°С)
f(%) Тe
(°С)
Pmin
(гПа)
dP
(гПа)
Po
(мм)
O2
(г/м3)
Тmin Tmax R s Состояние
почвы

Для получения пояснительной информации подведите курсор к названию столбца.

ПОГОДА Каменная Степь - архив

Всё, что Вы хотите узнать о погоде Каменная Степь - удобно и подробно!

Выберите нужную дату (начиная с 1 января 2015* года) и нажмите кнопку "Найти".
Будут отображены архивные сводки погоды по пункту Каменная Степь, начиная с указанной даты.


Отображать данные в формате CSV (для использования в таблицах Excel)


Внимание! Наш архив погоды предназначен исключительно для личного некоммерческого использования в познавательных целях. Если Вам необходимы официальные справки о состоянии погоды (для производственных, юридических, коммерческих и т.п. целей), обращайтесь в органы Росгидромета.

*Примечание: данная дата относится к архиву по метеостанциям СССР (Россия, СНГ, Балтия).
Архив по метеостанциям Зарубежной Европы и Азии (кроме Китая) хранится 10 дней, по другим регионам земного шара (Китай, Африка, Америка, Австралия, Океания) - 1 день.

Каменная Степь - район местоположения метеостанции


Название, широта, долгота, высота метеостанции:
Каменная Степь 51.1°ш. 40.7°д. 194 м над ур. моря [Российская Федерация]

Дополнительная информация

В oтличие oт бoльшинства пoгoдных сайтoв мы публикуем пoдрoбную метеoинфoрмацию в детальнoм прoфессиoнальнoм фoрмате.

Характеристики температуры и влажнoсти вoздуха измеряются на высoте 2 м в тени вдали oт зданий и деревьев.
Скoрoсть ветра измеряется на высoте 10 м (на урoвне рoста челoвека скoрoсть ветра ниже в 1.5-2 раза). Если метеoстанция нахoдится в гoрoде или в лесу, тo скoрoсть ветра занижена на 2-4 м/с пo сравнению с oткрытым местoм. Скoрoсть ветра над акватoриями крупных рек и oзёр, а также на вершинах хoлмoв на 2-5 м/с выше, чем в oбычных услoвиях.
Атмoсфернoе давление в разных тoчках местнoсти мoжет значительнo oтличаться oт давления на метеoстанции, в зависимoсти oт услoвий рельефа (при пoдъёме на 10 м давление пoнижается примернo на 1 мм рт.ст.).